• In Belarus
  • List of Countries
  • For 7 days
  • Water Temperature
  • Satellite Maps
  • Weather Map
  • Weather Widgets
  • user-avatar
    Login

    Hourly Weather Gabrovo

    Today, 25 May, Saturday

    Time Temperature Precipitation Wind Pressure Humidity
    00:00 +9°C° 0 mm 2 mps 697 mmHg 88%
    01:00 +10°C° 0 mm 1 mps 697 mmHg 89%
    02:00 +9°C° 0 mm 1 mps 697 mmHg 90%
    03:00 +9°C° 0 mm 1 mps 697 mmHg 90%
    04:00 +9°C° 0 mm 1 mps 697 mmHg 89%
    05:00 +9°C° 0 mm 1 mps 697 mmHg 89%
    06:00 +10°C° 0 mm 2 mps 698 mmHg 83%
    07:00 +13°C° 0 mm 2 mps 699 mmHg 77%
    08:00 +15°C° 0 mm 2 mps 699 mmHg 72%
    09:00 +16°C° 0.4 mm 2 mps 699 mmHg 69%
    10:00 +17°C° 0.4 mm 2 mps 700 mmHg 67%
    11:00 +18°C° 0.4 mm 2 mps 700 mmHg 65%
    12:00 +19°C° 1.3 mm 2 mps 700 mmHg 64%
    13:00 +19°C° 1.3 mm 2 mps 700 mmHg 64%
    14:00 +20°C° 1.3 mm 2 mps 700 mmHg 63%
    15:00 +20°C° 1.1 mm 2 mps 700 mmHg 64%
    16:00 +20°C° 1.1 mm 2 mps 700 mmHg 65%
    17:00 +20°C° 1.1 mm 2 mps 700 mmHg 66%
    18:00 +19°C° 0.3 mm 1 mps 700 mmHg 72%
    19:00 +16°C° 0.3 mm 1 mps 700 mmHg 77%
    20:00 +14°C° 0.3 mm 1 mps 699 mmHg 82%
    21:00 +14°C° 0 mm 1 mps 700 mmHg 83%
    22:00 +13°C° 0 mm 1 mps 700 mmHg 84%
    23:00 +12°C° 0 mm 1 mps 700 mmHg 85%

    Tomorrow, 26 May, Sunday

    Time Temperature Precipitation Wind Pressure Humidity
    00:00 +12°C° 0 mm 1 mps 700 mmHg 85%
    01:00 +12°C° 0 mm 1 mps 700 mmHg 85%
    02:00 +12°C° 0 mm 1 mps 701 mmHg 85%
    03:00 +11°C° 0 mm 1 mps 701 mmHg 85%
    04:00 +11°C° 0 mm 1 mps 701 mmHg 86%
    05:00 +11°C° 0 mm 1 mps 701 mmHg 86%
    06:00 +13°C° 0 mm 1 mps 701 mmHg 80%
    07:00 +15°C° 0 mm 1 mps 702 mmHg 75%
    08:00 +16°C° 0 mm 0 mps 702 mmHg 69%
    09:00 +18°C° 0 mm 0 mps 702 mmHg 63%
    10:00 +22°C° 0 mm 1 mps 703 mmHg 57%
    11:00 +23°C° 0 mm 1 mps 703 mmHg 51%
    12:00 +24°C° 0 mm 1 mps 703 mmHg 49%
    13:00 +24°C° 0 mm 1 mps 703 mmHg 47%
    14:00 +25°C° 0 mm 2 mps 703 mmHg 45%
    15:00 +24°C° 0 mm 2 mps 703 mmHg 47%
    16:00 +24°C° 0 mm 2 mps 703 mmHg 49%
    17:00 +24°C° 0 mm 2 mps 702 mmHg 50%
    18:00 +21°C° 0 mm 2 mps 702 mmHg 58%
    19:00 +20°C° 0 mm 1 mps 702 mmHg 66%
    20:00 +18°C° 0 mm 1 mps 702 mmHg 74%
    21:00 +16°C° 0 mm 1 mps 702 mmHg 77%
    22:00 +15°C° 0 mm 1 mps 702 mmHg 79%
    23:00 +15°C° 0 mm 1 mps 702 mmHg 82%

    Day after tomorrow, 27 May, Monday

    Time Temperature Precipitation Wind Pressure Humidity
    00:00 +15°C° 0 mm 1 mps 702 mmHg 83%
    01:00 +14°C° 0 mm 1 mps 702 mmHg 85%
    02:00 +14°C° 0 mm 1 mps 702 mmHg 87%
    03:00 +14°C° 0 mm 1 mps 702 mmHg 88%
    04:00 +13°C° 0 mm 1 mps 702 mmHg 89%
    05:00 +13°C° 0 mm 1 mps 702 mmHg 90%
    06:00 +15°C° 0 mm 1 mps 702 mmHg 84%
    07:00 +18°C° 0 mm 1 mps 703 mmHg 77%
    08:00 +20°C° 0 mm 1 mps 703 mmHg 71%
    09:00 +20°C° 0 mm 2 mps 703 mmHg 65%
    10:00 +21°C° 0 mm 2 mps 703 mmHg 60%
    11:00 +24°C° 0 mm 3 mps 703 mmHg 54%
    12:00 +24°C° 0 mm 3 mps 703 mmHg 53%
    13:00 +25°C° 0 mm 3 mps 703 mmHg 52%
    14:00 +25°C° 0 mm 4 mps 703 mmHg 51%
    15:00 +25°C° 0 mm 4 mps 702 mmHg 53%
    16:00 +25°C° 0 mm 4 mps 702 mmHg 55%
    17:00 +25°C° 0 mm 4 mps 702 mmHg 58%
    18:00 +22°C° 0 mm 3 mps 701 mmHg 62%
    19:00 +20°C° 0 mm 3 mps 701 mmHg 67%
    20:00 +18°C° 0 mm 2 mps 701 mmHg 71%
    21:00 +17°C° 0 mm 2 mps 701 mmHg 75%
    22:00 +16°C° 0 mm 2 mps 701 mmHg 78%
    23:00 +16°C° 0 mm 3 mps 701 mmHg 81%

    28 May, Tuesday

    Time Temperature Precipitation Wind Pressure Humidity
    00:00 +15°C° 0 mm 2 mps 701 mmHg 83%
    01:00 +14°C° 0 mm 2 mps 700 mmHg 84%
    02:00 +13°C° 0 mm 2 mps 700 mmHg 85%
    03:00 +13°C° 0 mm 2 mps 700 mmHg 83%
    04:00 +12°C° 0 mm 2 mps 699 mmHg 80%
    05:00 +12°C° 0 mm 2 mps 699 mmHg 78%
    06:00 +14°C° 0 mm 2 mps 699 mmHg 73%
    07:00 +16°C° 0 mm 2 mps 700 mmHg 68%
    08:00 +17°C° 0 mm 2 mps 700 mmHg 63%
    09:00 +19°C° 0 mm 2 mps 700 mmHg 59%
    10:00 +21°C° 0 mm 3 mps 700 mmHg 56%
    11:00 +22°C° 0 mm 3 mps 700 mmHg 53%
    12:00 +25°C° 0 mm 4 mps 700 mmHg 50%
    13:00 +26°C° 0 mm 5 mps 699 mmHg 46%
    14:00 +28°C° 0 mm 6 mps 699 mmHg 43%
    15:00 +27°C° 0 mm 6 mps 699 mmHg 43%
    16:00 +27°C° 0 mm 6 mps 698 mmHg 44%
    17:00 +26°C° 0 mm 6 mps 698 mmHg 45%
    18:00 +22°C° 0 mm 5 mps 697 mmHg 50%
    19:00 +20°C° 0 mm 4 mps 697 mmHg 56%
    20:00 +17°C° 0 mm 3 mps 697 mmHg 61%
    21:00 +16°C° 0 mm 3 mps 697 mmHg 65%
    22:00 +15°C° 0 mm 2 mps 697 mmHg 69%
    23:00 +14°C° 0 mm 1 mps 697 mmHg 73%

    29 May, Wednesday

    Time Temperature Precipitation Wind Pressure Humidity
    00:00 +13°C° 0 mm 1 mps 697 mmHg 72%
    01:00 +13°C° 0 mm 1 mps 697 mmHg 72%
    02:00 +13°C° 0 mm 1 mps 697 mmHg 71%
    03:00 +13°C° 0 mm 1 mps 697 mmHg 71%
    04:00 +13°C° 0 mm 1 mps 697 mmHg 71%
    05:00 +13°C° 0 mm 1 mps 697 mmHg 70%
    06:00 +15°C° 0 mm 1 mps 698 mmHg 66%
    07:00 +18°C° 0 mm 1 mps 698 mmHg 61%
    08:00 +20°C° 0 mm 1 mps 699 mmHg 57%
    09:00 +22°C° 0 mm 1 mps 699 mmHg 54%
    10:00 +23°C° 0 mm 1 mps 700 mmHg 51%
    11:00 +25°C° 0 mm 1 mps 700 mmHg 48%
    12:00 +26°C° 0 mm 1 mps 700 mmHg 46%
    13:00 +27°C° 0 mm 1 mps 700 mmHg 43%
    14:00 +27°C° 0 mm 1 mps 700 mmHg 41%
    15:00 +27°C° 0.1 mm 1 mps 700 mmHg 43%
    16:00 +27°C° 0.1 mm 1 mps 700 mmHg 44%
    17:00 +25°C° 0.1 mm 0 mps 700 mmHg 45%
    18:00 +25°C° 0.3 mm 1 mps 700 mmHg 53%
    19:00 +22°C° 0.3 mm 1 mps 700 mmHg 60%
    20:00 +20°C° 0.3 mm 1 mps 700 mmHg 68%
    21:00 +19°C° 0.2 mm 1 mps 700 mmHg 70%
    22:00 +19°C° 0.2 mm 1 mps 700 mmHg 73%
    23:00 +18°C° 0.2 mm 1 mps 701 mmHg 75%

    30 May, Thursday

    Time Temperature Precipitation Wind Pressure Humidity
    00:00 +18°C° 0.3 mm 1 mps 701 mmHg 77%
    01:00 +16°C° 0.3 mm 2 mps 701 mmHg 78%
    02:00 +16°C° 0.3 mm 2 mps 701 mmHg 80%
    03:00 +16°C° 0.1 mm 2 mps 701 mmHg 80%
    04:00 +16°C° 0.1 mm 2 mps 701 mmHg 81%
    05:00 +15°C° 0.1 mm 2 mps 702 mmHg 82%
    06:00 +17°C° 0 mm 2 mps 702 mmHg 76%
    07:00 +19°C° 0 mm 2 mps 703 mmHg 70%
    08:00 +21°C° 0 mm 2 mps 703 mmHg 64%
    09:00 +23°C° 0 mm 2 mps 703 mmHg 59%
    10:00 +24°C° 0 mm 2 mps 704 mmHg 54%
    11:00 +25°C° 0 mm 2 mps 704 mmHg 50%
    12:00 +26°C° 0 mm 2 mps 704 mmHg 49%
    13:00 +26°C° 0 mm 2 mps 704 mmHg 48%
    14:00 +27°C° 0 mm 2 mps 704 mmHg 47%
    15:00 +26°C° 0.4 mm 2 mps 703 mmHg 52%
    16:00 +26°C° 0.4 mm 2 mps 703 mmHg 57%
    17:00 +25°C° 0.4 mm 2 mps 703 mmHg 62%
    18:00 +23°C° 0.5 mm 2 mps 703 mmHg 67%
    19:00 +20°C° 0.5 mm 2 mps 703 mmHg 73%
    20:00 +19°C° 0.5 mm 2 mps 702 mmHg 78%
    21:00 +19°C° 0.3 mm 1 mps 702 mmHg 79%
    22:00 +19°C° 0.3 mm 1 mps 703 mmHg 80%
    23:00 +18°C° 0.3 mm 1 mps 703 mmHg 81%
    Show more